Weather History for KFMN - February, 2014

Change the Weather History Date:

Wednesday, February 26, 2014

  Actual Average Record
Temperature  
Mean Temperature 44 °F -  
Max Temperature 63 °F 46 °F 69 °F (1986)
Min Temperature 24 °F 23 °F 12 °F (2013)
Degree Days  
Heating Degree Days 22    
Moisture  
Dew Point 12 °F    
Average Humidity 30    
Maximum Humidity 53    
Minimum Humidity 7    
Precipitation  
Precipitation 0.00 in - - ()
Sea Level Pressure  
Sea Level Pressure 29.97 in    
Wind  
Wind Speed 8 mph (North)    
Max Wind Speed 18 mph    
Max Gust Speed 26 mph    
Visibility 10 miles    
Events      
Averages and records for this station are not official NWS values.
T = Trace of Precipitation, MM = Missing Value Source: NWS Daily Summary

Daily Weather History Graph

Daily Weather History Graph

Search for Another Location

Airport or City:

Trip Planner

Search our weather history database for the weather conditions in past years. The results will help you decide how hot, cold, wet, or windy it might be!

Date:

Astronomy

Feb. 26, 2014 Rise Set
Actual Time 6:47 AM MST 6:04 PM MST
Civil Twilight 6:21 AM MST 6:30 PM MST
Nautical Twilight 5:51 AM MST 7:00 PM MST
Astronomical Twilight 5:21 AM MST 7:30 PM MST
Moon 4:32 AM MST (2/26) 3:25 PM MST (2/26)
Length of Visible Light 12h 09m
Length of Day
11h 16m
Waning Crescent, 9% of the Moon is Illuminated
Feb 26
Waning Crescent
Mar 1
New
Mar 8
First Quarter
Mar 16
Full
Mar 23
Last Quarter

Hourly Weather History & Observations

Time (MST) Temp. Windchill Dew Point Humidity Pressure Visibility Wind Dir Wind Speed Gust Speed Precip Events Conditions
12:53 AM 30.9 °F 25.2 °F 10.0 °F 42% 29.97 in 10.0 mi ENE 5.8 mph - N/A   Clear
1:53 AM 28.0 °F 22.8 °F 10.0 °F 47% 29.98 in 10.0 mi NE 4.6 mph - N/A   Clear
2:53 AM 27.0 °F 21.6 °F 10.0 °F 49% 29.97 in 10.0 mi NE 4.6 mph - N/A   Clear
3:53 AM 26.1 °F 20.5 °F 10.0 °F 51% 29.97 in 10.0 mi ENE 4.6 mph - N/A   Clear
4:53 AM 25.0 °F 18.1 °F 10.0 °F 53% 29.99 in 10.0 mi East 5.8 mph - N/A   Clear
5:53 AM 27.0 °F 19.5 °F 10.9 °F 51% 30.02 in 10.0 mi East 6.9 mph - N/A   Clear
6:53 AM 27.0 °F 18.7 °F 12.0 °F 53% 30.05 in 10.0 mi East 8.1 mph - N/A   Clear
7:53 AM 32.0 °F 24.8 °F 12.9 °F 45% 30.05 in 10.0 mi East 8.1 mph - N/A   Clear
8:53 AM 37.0 °F 32.4 °F 14.0 °F 39% 30.07 in 10.0 mi East 5.8 mph - N/A   Clear
9:53 AM 44.1 °F 42.5 °F 15.1 °F 31% 30.05 in 10.0 mi SSE 3.5 mph - N/A   Clear
10:53 AM 52.0 °F - 14.0 °F 22% 30.02 in 10.0 mi West 9.2 mph - N/A   Clear
11:53 AM 57.9 °F - 14.0 °F 18% 29.97 in 10.0 mi West 17.3 mph 24.2 mph N/A   Clear
12:53 PM 60.1 °F - 15.1 °F 17% 29.94 in 10.0 mi West 15.0 mph 21.9 mph N/A   Clear
1:53 PM 61.0 °F - 15.1 °F 17% 29.91 in 10.0 mi West 18.4 mph 24.2 mph N/A   Clear
2:53 PM 62.1 °F - 14.0 °F 15% 29.90 in 10.0 mi West 16.1 mph 23.0 mph N/A   Clear
3:53 PM 61.0 °F - 12.0 °F 15% 29.90 in 10.0 mi West 13.8 mph 26.5 mph N/A   Clear
4:53 PM 60.1 °F - 12.0 °F 15% 29.90 in 10.0 mi WNW 18.4 mph - N/A   Clear
5:53 PM 57.0 °F - 12.9 °F 18% 29.91 in 10.0 mi WNW 10.4 mph - N/A   Clear
6:53 PM 53.1 °F - 12.9 °F 20% 29.94 in 10.0 mi WNW 9.2 mph - N/A   Clear
7:53 PM 48.9 °F - 12.0 °F 23% 29.93 in 10.0 mi WNW 6.9 mph - N/A   Clear
8:53 PM 45.0 °F 42.6 °F 12.0 °F 26% 29.94 in 10.0 mi West 4.6 mph - N/A   Clear
9:53 PM 37.9 °F 32.1 °F 12.9 °F 36% 29.95 in 10.0 mi NE 8.1 mph - N/A   Clear
10:53 PM 37.0 °F 31.6 °F 12.9 °F 37% 29.94 in 10.0 mi North 6.9 mph - N/A   Clear
11:53 PM 34.0 °F 29.8 °F 12.9 °F 42% 29.92 in 10.0 mi NE 4.6 mph - N/A   Partly Cloudy